Blacksburg, VA

5:08 PM EDT on July 27, 2017 (GMT -0400)
Virginia Tech

Weather History for KBCB - July, 2013

Change the Weather History Date:

Wednesday, July 3, 2013

  Actual Average Record
Temperature  
Mean Temperature 70 °F 71 °F  
Max Temperature 74 °F 82 °F 95 °F (1954)
Min Temperature 65 °F 60 °F 43 °F (1988)
Degree Days  
Heating Degree Days 0 0  
Month to date heating degree days 0 0  
Since 1 June heating degree days 7 38  
Since 1 July heating degree days 0 0  
Cooling Degree Days 5 6  
Month to date cooling degree days 16 18  
Year to date cooling degree days 163 166  
Since 1 June cooling degree days 132 137  
Growing Degree Days 22 (Base 50)    
Moisture  
Dew Point 71 °F    
Average Humidity 97    
Maximum Humidity 100    
Minimum Humidity 94    
Precipitation  
Precipitation 2.73 in 0.12 in 2.73 in (2013)
Month to date precipitation 3.45 0.37  
Year to date precipitation 33.26 21.71  
Snow  
Snow 0.00 in - - ()
Month to date snowfall 0.0  
Since 1 June snowfall T  
Since 1 July snowfall 0.0  
Snow Depth 0.00 in    
Sea Level Pressure  
Sea Level Pressure 30.28 in    
Wind  
Wind Speed 2 mph (ESE)    
Max Wind Speed 6 mph    
Max Gust Speed 10 mph    
Visibility 9 miles    
Events Fog , Rain , Thunderstorm    
T = Trace of Precipitation, MM = Missing Value Source: NWS Daily Summary

Daily Weather History Graph

Daily Weather History Graph

Search for Another Location

Airport or City:

Trip Planner

Search our weather history database for the weather conditions in past years. The results will help you decide how hot, cold, wet, or windy it might be!

Date:

Astronomy

Jul. 03, 2013 Rise Set
Actual Time 6:06 AM EDT 8:45 PM EDT
Civil Twilight 5:35 AM EDT 9:16 PM EDT
Nautical Twilight 4:57 AM EDT 9:54 PM EDT
Astronomical Twilight 4:14 AM EDT 10:37 PM EDT
Moon 2:40 AM EDT (7/3) 4:56 PM EDT (7/3)
Length of Visible Light 15h 40m
Length of Day
14h 39m
Waning Crescent, 18% of the Moon is Illuminated
Jul 3
Waning Crescent
Jul 8
New
Jul 15
First Quarter
Jul 22
Full
Jul 29
Last Quarter

Hourly Weather History & Observations

Time (EDT) Temp. Dew Point Humidity Pressure Visibility Wind Dir Wind Speed Gust Speed Precip Events Conditions
12:15 AM 69.8 °F 69.8 °F 100% 30.24 in 10.0 mi Calm Calm - N/A   Overcast
12:35 AM 69.8 °F 69.8 °F 100% 30.25 in 10.0 mi Calm Calm - N/A   Overcast
12:55 AM 69.8 °F 69.8 °F 100% 30.24 in 10.0 mi Calm Calm - N/A   Overcast
1:15 AM 69.8 °F 69.8 °F 100% 30.24 in 10.0 mi Calm Calm - N/A   Light Drizzle
1:35 AM 69.8 °F 69.8 °F 100% 30.24 in 5.0 mi Calm Calm - N/A Rain Light Rain
1:55 AM 69.8 °F 69.8 °F 100% 30.24 in 5.0 mi Calm Calm - N/A   Heavy Drizzle
2:15 AM 69.8 °F 69.8 °F 100% 30.23 in 10.0 mi Calm Calm - N/A   Overcast
2:35 AM 69.8 °F 69.8 °F 100% 30.23 in 7.0 mi Calm Calm - N/A   Light Drizzle
2:55 AM 69.8 °F 69.8 °F 100% 30.23 in 10.0 mi Calm Calm - 0.01 in   Drizzle
3:15 AM 69.8 °F 69.8 °F 100% 30.22 in 10.0 mi Calm Calm - N/A   Overcast
3:35 AM 69.8 °F 69.8 °F 100% 30.23 in 10.0 mi Calm Calm - N/A   Overcast
3:55 AM 69.8 °F 69.8 °F 100% 30.22 in 5.0 mi Calm Calm - N/A Rain Rain
4:15 AM 69.8 °F 69.8 °F 100% 30.22 in 10.0 mi Calm Calm - N/A Rain Light Rain
4:35 AM 69.8 °F 69.8 °F 100% 30.22 in 10.0 mi Calm Calm - N/A   Overcast
4:55 AM 69.8 °F 69.8 °F 100% 30.23 in 10.0 mi Calm Calm - N/A   Light Drizzle
5:15 AM 69.8 °F 69.8 °F 100% 30.24 in 10.0 mi Calm Calm - N/A   Overcast
5:35 AM 69.8 °F 69.8 °F 100% 30.24 in 10.0 mi ESE 3.5 mph - N/A   Mostly Cloudy
5:55 AM 69.8 °F 69.8 °F 100% 30.25 in 10.0 mi SE 4.6 mph - N/A   Overcast
6:15 AM 69.8 °F 69.8 °F 100% 30.25 in 1.0 mi SE 3.5 mph - N/A   Overcast
6:35 AM 69.8 °F 69.8 °F 100% 30.25 in 0.5 mi ESE 3.5 mph - N/A Fog Fog
6:55 AM 69.8 °F 69.8 °F 100% 30.27 in 7.0 mi SE 3.5 mph - N/A   Overcast
7:15 AM 69.8 °F 69.8 °F 100% 30.28 in 10.0 mi Calm Calm - N/A   Overcast
7:35 AM 69.8 °F 69.8 °F 100% 30.29 in 5.0 mi Calm Calm - N/A Rain Light Rain
7:55 AM 69.8 °F 69.8 °F 100% 30.30 in 4.0 mi Calm Calm - N/A Rain Rain
8:15 AM 69.8 °F 69.8 °F 100% 30.30 in 7.0 mi Calm Calm - 0.01 in Rain Light Rain
8:35 AM 71.6 °F 71.6 °F 100% 30.30 in 10.0 mi Calm Calm - 0.02 in   Light Drizzle
8:55 AM 71.6 °F 71.6 °F 100% 30.31 in 10.0 mi Calm Calm - 0.02 in Rain Light Rain
9:15 AM 71.6 °F 71.6 °F 100% 30.31 in 10.0 mi Calm Calm - N/A   Mostly Cloudy
9:35 AM 71.6 °F 71.6 °F 100% 30.31 in 10.0 mi Calm Calm - N/A   Scattered Clouds
9:55 AM 71.6 °F 71.6 °F 100% 30.32 in 10.0 mi Calm Calm - N/A   Light Drizzle
10:15 AM 71.6 °F 71.6 °F 100% 30.32 in 10.0 mi SE 3.5 mph - N/A   Drizzle
10:35 AM 71.6 °F 71.6 °F 100% 30.32 in 10.0 mi Calm Calm - 0.01 in Rain Light Rain
10:55 AM 71.6 °F 71.6 °F 100% 30.31 in 10.0 mi Calm Calm - 0.01 in Rain Light Rain
11:15 AM 73.4 °F 73.4 °F 100% 30.31 in 10.0 mi Calm Calm - N/A Rain Light Rain
11:35 AM 73.4 °F 73.4 °F 100% 30.32 in 10.0 mi ESE 4.6 mph - N/A Rain Light Rain
11:55 AM 73.4 °F 73.4 °F 100% 30.32 in 10.0 mi East 4.6 mph - N/A Rain Light Rain
12:15 PM 73.4 °F 73.4 °F 100% 30.32 in 10.0 mi ESE 5.8 mph - 0.01 in   Drizzle
12:35 PM 73.4 °F 73.4 °F 100% 30.32 in 10.0 mi ESE 4.6 mph - 0.01 in   Light Drizzle
12:55 PM 75.2 °F 73.4 °F 94% 30.32 in 10.0 mi ESE 5.8 mph - 0.01 in   Light Drizzle
1:15 PM 73.4 °F 73.4 °F 100% 30.31 in 10.0 mi East 6.9 mph - N/A   Mostly Cloudy
1:35 PM 75.2 °F 73.4 °F 94% 30.31 in 10.0 mi ESE 5.8 mph - N/A   Mostly Cloudy
1:55 PM 75.2 °F 73.4 °F 94% 30.30 in 10.0 mi Calm Calm - N/A   Mostly Cloudy
2:15 PM 75.2 °F 73.4 °F 94% 30.30 in 10.0 mi East 5.8 mph - N/A Rain Light Rain
2:35 PM 71.6 °F 71.6 °F 100% 30.30 in 1.8 mi ESE 8.1 mph - 0.45 in Rain Heavy Rain
2:55 PM 71.6 °F 71.6 °F 100% 30.30 in 10.0 mi SE 4.6 mph - 0.47 in Rain Light Rain
3:15 PM 73.4 °F 71.6 °F 94% 30.30 in 10.0 mi ESE 4.6 mph - N/A   Mostly Cloudy
3:35 PM 75.2 °F 73.4 °F 94% 30.29 in 10.0 mi East 5.8 mph - N/A   Mostly Cloudy
3:55 PM 75.2 °F 75.2 °F 100% 30.29 in 10.0 mi East 5.8 mph - N/A   Mostly Cloudy
4:15 PM 75.2 °F 75.2 °F 100% 30.28 in 10.0 mi East 9.2 mph - N/A   Mostly Cloudy
4:35 PM 75.2 °F 75.2 °F 100% 30.28 in 10.0 mi East 11.5 mph - N/A   Mostly Cloudy
4:55 PM 73.4 °F 73.4 °F 100% 30.28 in 10.0 mi WSW 3.5 mph 10.4 mph N/A   Overcast
5:15 PM 69.8 °F 69.8 °F 100% 30.29 in 0.5 mi West 3.5 mph - 0.71 in Rain Heavy Rain
5:35 PM 69.8 °F 69.8 °F 100% 30.30 in 2.5 mi Calm Calm - 1.06 in Rain Heavy Rain
5:55 PM 69.8 °F 69.8 °F 100% 30.30 in 10.0 mi Calm Calm - 1.11 in Rain Light Rain
6:15 PM 69.8 °F 69.8 °F 100% 30.29 in 7.0 mi Calm Calm - N/A Rain Light Rain
6:35 PM 71.6 °F 71.6 °F 100% 30.29 in 10.0 mi Calm Calm - N/A   Mostly Cloudy
6:55 PM 71.6 °F 71.6 °F 100% 30.29 in 10.0 mi Calm Calm - N/A   Mostly Cloudy
7:15 PM 71.6 °F 71.6 °F 100% 30.29 in 10.0 mi East 4.6 mph - N/A   Scattered Clouds
7:35 PM 71.6 °F 71.6 °F 100% 30.30 in 10.0 mi East 3.5 mph - N/A   Scattered Clouds
7:55 PM 71.6 °F 71.6 °F 100% 30.30 in 10.0 mi ENE 4.6 mph - N/A Rain Rain
8:15 PM 71.6 °F 71.6 °F 100% 30.30 in 1.8 mi East 3.5 mph - 0.16 in Rain Heavy Rain
8:35 PM 71.6 °F 71.6 °F 100% 30.30 in 1.8 mi ENE 4.6 mph - 0.41 in Rain , Thunderstorm Rain
8:55 PM 71.6 °F 71.6 °F 100% 30.30 in 7.0 mi Calm Calm - 0.49 in Rain Heavy Rain
9:15 PM 69.8 °F 69.8 °F 100% 30.30 in 10.0 mi Calm Calm - 0.01 in Rain Light Rain
9:35 PM 69.8 °F 69.8 °F 100% 30.30 in 10.0 mi Calm Calm - 0.01 in   Light Drizzle
9:55 PM 69.8 °F 69.8 °F 100% 30.31 in 7.0 mi Calm Calm - 0.07 in Rain Light Rain
10:15 PM 69.8 °F 69.8 °F 100% 30.30 in 10.0 mi North 3.5 mph - 0.02 in Rain Rain
10:35 PM 69.8 °F 69.8 °F 100% 30.31 in 10.0 mi Calm Calm - 0.16 in Rain Rain
10:55 PM 69.8 °F 69.8 °F 100% 30.31 in 10.0 mi Calm Calm - 0.17 in   Drizzle
11:15 PM 69.8 °F 69.8 °F 100% 30.31 in 10.0 mi Calm Calm - N/A Rain Rain
11:35 PM 69.8 °F 69.8 °F 100% 30.30 in 10.0 mi Calm Calm - N/A   Overcast
11:55 PM 69.8 °F 69.8 °F 100% 30.31 in 10.0 mi ESE 5.8 mph - N/A   Overcast